SCP
0 0 0 0 0 0 0 0 -0 0 0 0 0 0 0 0 0 0 0 0 0 -0
0 0 0 0 0 0 0 0 0 0 0 0 0 0 0 0 0 0 0 0 0 0
0 0 0 0 0 0 0 0 0 0 0 0 0 0 0 0 0 0 0 0 0 0
0 0 0 0 0 0 0 0 0 0 0 0 0 0 0 0 0 0 0 0 0 0
0 0 0 0 0 0 0 0 0 0 0 0 0 0 0 -0 -0 0 0 0 0 0
0 0 0 0 0 0 0 0 0 0 0 0 0 0 -0 -0 -0 0 0 0 0 0
0 0 0 0 0 0 0 0 0 0 0 0 0 0 -0 -0 -0 0 0 0 0 0
0 0 0 0 0 0 0 0 0 0 0 0 0 0 0 0 0 0 0 0 0 0
0 0 0 0 0 0 0 0 0 0 0 0 0 0 0 0 0 0 0 0 0 0
0 0 0 0 0 0 0 0 0 0 0 0 0 0 0 0 0 0 0 0 0 0
0 0 0 0 0 0 0 0 0 0 0 0 0 0 0 0 0 0 0 0 0 0
0 0 0 0 0 0 0 0 0 0 0 0 0 0 0 0 0 0 0 0 0 0
0 0 0 0 0 0 0 0 0 0 0 0 0 0 0 0 0 0 0 0 0 0
0 0 0 0 0 0 0 0 0 0 0 0 0 0 0 0 0 0 0 0 0 0
Wind_Speed_500mb
11 13 14 14 10 11 11 7 8 11 20 14 18 18 13 18 21 19 18 22 26 30
11 12 11 12 11 9 7 5 4 7 11 15 17 14 10 17 23 16 16 19 20 26
12 13 16 22 20 11 4 5 2 4 10 19 20 8 7 14 20 15 15 19 16 25
14 17 20 19 18 15 17 9 5 11 13 16 17 8 2 7 11 18 17 16 20 24
17 20 22 16 11 8 5 11 15 8 11 15 19 12 7 3 7 14 18 21 24 27
21 23 19 13 9 6 7 2 10 14 9 11 17 12 4 5 8 15 21 26 29 35
22 19 17 13 9 6 6 5 6 12 7 5 10 11 8 7 10 16 19 22 25 28
22 19 19 14 9 10 9 7 7 11 12 7 5 5 7 9 14 19 19 22 27 30
25 22 21 11 13 11 11 12 14 15 15 9 8 9 12 16 21 24 31 34 38 40
25 25 23 18 12 14 15 17 13 16 12 10 12 16 22 28 37 44 45 50 52 53
28 27 23 21 15 15 15 19 13 10 9 13 17 23 30 35 42 46 42 36 46 46
30 28 21 20 15 11 14 14 8 7 13 22 27 31 32 32 34 33 29 36 42 40
27 24 17 14 13 13 11 11 10 12 19 27 34 30 28 31 34 31 33 36 36 36
27 16 13 12 12 9 8 9 13 20 24 26 31 32 35 36 34 33 36 37 33 30
Wind_Direction_500mb
146 143 146 149 137 119 117 92 61 50 31 43 32 40 37 45 28 27 36 35 28 31
165 158 157 151 134 147 138 89 56 28 12 11 359 9 12 6 11 9 35 35 40 52
172 161 140 125 106 104 164 226 259 12 348 344 359 334 333 344 3 21 59 62 64 25
184 171 160 143 122 98 72 57 269 320 339 356 5 15 60 348 8 19 40 35 15 7
188 170 161 149 139 143 100 50 32 359 3 3 20 56 92 29 345 3 12 5 353 348
190 178 169 156 169 224 239 340 26 22 2 13 33 52 87 2 343 338 335 336 337 346
189 181 175 182 194 214 257 270 321 358 343 340 23 36 25 356 342 340 343 344 348 345
189 183 180 198 217 221 262 277 298 326 344 287 319 357 351 335 324 322 322 322 325 328
196 193 185 190 225 247 260 276 286 309 319 269 277 299 312 314 313 311 315 316 312 317
200 199 204 214 238 253 269 301 283 285 285 263 283 296 306 308 304 307 305 306 305 312
205 203 210 226 242 260 267 292 270 270 264 287 304 310 309 308 303 305 312 322 321 315
206 207 219 220 248 269 278 277 226 253 299 312 313 315 314 309 317 316 320 332 329 323
202 201 222 236 243 267 269 219 252 293 312 320 317 317 312 309 312 308 315 329 327 327
186 204 236 228 244 234 208 235 285 305 315 324 326 317 309 305 302 308 321 329 332 329
Wind_Speed_850mb
11 13 14 14 10 11 11 7 8 11 20 14 18 18 13 18 21 19 18 22 26 30
11 12 11 12 11 9 7 5 4 7 11 15 17 14 10 17 23 16 16 19 20 26
12 13 16 22 20 11 4 5 2 4 10 19 20 8 7 14 20 15 15 19 16 25
14 17 20 19 18 15 17 9 5 11 13 16 17 8 2 7 11 18 17 16 20 24
17 20 22 16 11 8 5 11 15 8 11 15 19 12 7 3 7 14 18 21 24 27
21 23 19 13 9 6 7 2 10 14 9 11 17 12 4 5 8 15 21 26 29 35
22 19 17 13 9 6 6 5 6 12 7 5 10 11 8 7 10 16 19 22 25 28
22 19 19 14 9 10 9 7 7 11 12 7 5 5 7 9 14 19 19 22 27 30
25 22 21 11 13 11 11 12 14 15 15 9 8 9 12 16 21 24 31 34 38 40
25 25 23 18 12 14 15 17 13 16 12 10 12 16 22 28 37 44 45 50 52 53
28 27 23 21 15 15 15 19 13 10 9 13 17 23 30 35 42 46 42 36 46 46
30 28 21 20 15 11 14 14 8 7 13 22 27 31 32 32 34 33 29 36 42 40
27 24 17 14 13 13 11 11 10 12 19 27 34 30 28 31 34 31 33 36 36 36
27 16 13 12 12 9 8 9 13 20 24 26 31 32 35 36 34 33 36 37 33 30
Wind_Direction_850mb
146 143 146 149 137 119 117 92 61 50 31 43 32 40 37 45 28 27 36 35 28 31
165 158 157 151 134 147 138 89 56 28 12 11 359 9 12 6 11 9 35 35 40 52
172 161 140 125 106 104 164 226 259 12 348 344 359 334 333 344 3 21 59 62 64 25
184 171 160 143 122 98 72 57 269 320 339 356 5 15 60 348 8 19 40 35 15 7
188 170 161 149 139 143 100 50 32 359 3 3 20 56 92 29 345 3 12 5 353 348
190 178 169 156 169 224 239 340 26 22 2 13 33 52 87 2 343 338 335 336 337 346
189 181 175 182 194 214 257 270 321 358 343 340 23 36 25 356 342 340 343 344 348 345
189 183 180 198 217 221 262 277 298 326 344 287 319 357 351 335 324 322 322 322 325 328
196 193 185 190 225 247 260 276 286 309 319 269 277 299 312 314 313 311 315 316 312 317
200 199 204 214 238 253 269 301 283 285 285 263 283 296 306 308 304 307 305 306 305 312
205 203 210 226 242 260 267 292 270 270 264 287 304 310 309 308 303 305 312 322 321 315
206 207 219 220 248 269 278 277 226 253 299 312 313 315 314 309 317 316 320 332 329 323
202 201 222 236 243 267 269 219 252 293 312 320 317 317 312 309 312 308 315 329 327 327
186 204 236 228 244 234 208 235 285 305 315 324 326 317 309 305 302 308 321 329 332 329